| time (UTC) | temp F | wind direction | speed MPH | gust MPH | rain 1hr in | rain 24hr in | rain mn in | humidity % | barometer mb |
| 20260509042704 | 73 | 50 | 7.0 | 24.0 | 0.00 | 0.00 | 0.00 | 73 | 1012.4 |
| 20260509041703 | 73 | 40 | 9.0 | 24.0 | 0.00 | 0.00 | 0.00 | 73 | 1012.4 |
| 20260509040703 | 73 | 30 | 6.0 | 23.0 | 0.00 | 0.00 | 0.00 | 72 | 1012.5 |
| 20260509035704 | 73 | 50 | 7.0 | 23.0 | 0.00 | 0.00 | 0.00 | 73 | 1012.6 |
| 20260509034703 | 72 | 60 | 9.0 | 23.0 | 0.00 | 0.00 | 0.00 | 73 | 1012.9 |
| 20260509033703 | 73 | 60 | 9.0 | 23.0 | 0.00 | 0.00 | 0.00 | 73 | 1012.8 |
| 20260509032703 | 73 | 60 | 10.0 | 23.0 | 0.00 | 0.00 | 0.00 | 72 | 1012.9 |
| 20260509031704 | 72 | 60 | 6.0 | 23.0 | 0.00 | 0.00 | 0.00 | 77 | 1012.9 |
| 20260509030703 | 71 | 40 | 7.0 | 26.0 | 0.00 | 0.00 | 0.00 | 79 | 1013.0 |
| 20260509025704 | 71 | 30 | 8.0 | 26.0 | 0.00 | 0.00 | 0.00 | 80 | 1013.3 |
| 20260509024703 | 71 | 30 | 7.0 | 26.0 | 0.00 | 0.00 | 0.00 | 79 | 1013.5 |
| 20260509023704 | 71 | 30 | 7.0 | 26.0 | 0.00 | 0.00 | 0.00 | 79 | 1013.5 |
| 20260509022704 | 70 | 40 | 7.0 | 26.0 | 0.00 | 0.00 | 0.00 | 80 | 1013.5 |
| 20260509021704 | 70 | 30 | 9.0 | 26.0 | 0.00 | 0.00 | 0.00 | 80 | 1013.6 |
| 20260509020703 | 70 | 30 | 9.0 | 16.0 | 0.00 | 0.00 | 0.00 | 81 | 1013.7 |
| 20260509015704 | 70 | 20 | 6.0 | 16.0 | 0.00 | 0.00 | 0.00 | 82 | 1013.7 |
| 20260509014704 | 70 | 30 | 6.0 | 16.0 | 0.00 | 0.00 | 0.00 | 84 | 1013.6 |
| 20260509013703 | 70 | 30 | 7.0 | 16.0 | 0.00 | 0.00 | 0.00 | 83 | 1013.5 |
| 20260509012703 | 69 | 30 | 5.0 | 16.0 | 0.00 | 0.00 | 0.00 | 84 | 1013.5 |
| 20260509011704 | 69 | 40 | 8.0 | 16.0 | 0.00 | 0.00 | 0.00 | 84 | 1013.5 |
| 20260509010704 | 69 | 40 | 7.0 | 15.0 | 0.00 | 0.00 | 0.00 | 85 | 1013.5 |
| 20260509005703 | 69 | 40 | 7.0 | 15.0 | 0.00 | 0.00 | 0.00 | 85 | 1013.5 |
| 20260509004703 | 69 | 20 | 6.0 | 15.0 | 0.00 | 0.00 | 0.00 | 86 | 1013.5 |
| 20260509003703 | 69 | 30 | 6.0 | 15.0 | 0.00 | 0.00 | 0.00 | 86 | 1013.4 |
| 20260509002704 | 69 | 20 | 5.0 | 15.0 | 0.00 | 0.00 | 0.00 | 87 | 1013.3 |
| 20260509001703 | 68 | 30 | 7.0 | 15.0 | 0.00 | 0.00 | 0.00 | 87 | 1013.3 |
| 20260509000704 | 69 | 20 | 3.0 | 18.0 | 0.00 | 0.00 | 0.00 | 88 | 1013.3 |
| 20260508235704 | 69 | 50 | 3.0 | 18.0 | 0.00 | 0.00 | 0.00 | 88 | 1013.2 |
| 20260508234703 | 68 | 50 | 6.0 | 18.0 | 0.00 | 0.00 | 0.00 | 88 | 1013.1 |
| 20260508233703 | 68 | 40 | 5.0 | 18.0 | 0.00 | 0.00 | 0.00 | 89 | 1013.1 |
| 20260508232703 | 68 | 40 | 6.0 | 18.0 | 0.00 | 0.00 | 0.00 | 88 | 1013.1 |
| 20260508231703 | 68 | 50 | 4.0 | 18.0 | 0.00 | 0.00 | 0.00 | 89 | 1012.9 |
| 20260508230703 | 68 | 50 | 4.0 | 21.0 | 0.00 | 0.00 | 0.00 | 89 | 1012.8 |
| 20260508225703 | 67 | 50 | 5.0 | 21.0 | 0.00 | 0.00 | 0.00 | 90 | 1012.7 |
| 20260508224703 | 67 | 40 | 6.0 | 21.0 | 0.00 | 0.00 | 0.00 | 89 | 1012.9 |
| 20260508223703 | 68 | 40 | 6.0 | 21.0 | 0.00 | 0.00 | 0.00 | 88 | 1012.6 |
| 20260508222704 | 68 | 20 | 6.0 | 21.0 | 0.00 | 0.00 | 0.00 | 85 | 1012.8 |
| 20260508221704 | 68 | 30 | 7.0 | 21.0 | 0.00 | 0.00 | 0.00 | 84 | 1012.7 |
| 20260508220703 | 68 | 30 | 6.0 | 17.0 | 0.00 | 0.00 | 0.00 | 82 | 1012.5 |
| 20260508215703 | 68 | 40 | 7.0 | 17.0 | 0.00 | 0.00 | 0.00 | 82 | 1012.5 |
| 20260508214703 | 68 | 40 | 8.0 | 17.0 | 0.00 | 0.00 | 0.00 | 81 | 1012.4 |
| 20260508213703 | 69 | 30 | 7.0 | 17.0 | 0.00 | 0.00 | 0.00 | 82 | 1012.5 |
| 20260508212703 | 69 | 40 | 6.0 | 17.0 | 0.00 | 0.00 | 0.00 | 81 | 1012.1 |
| 20260508211704 | 69 | 40 | 7.0 | 17.0 | 0.00 | 0.00 | 0.00 | 82 | 1012.0 |
| 20260508210703 | 69 | 30 | 8.0 | 19.0 | 0.00 | 0.00 | 0.00 | 81 | 1012.0 |
| 20260508205703 | 69 | 30 | 7.0 | 19.0 | 0.00 | 0.00 | 0.00 | 81 | 1011.9 |
| 20260508204703 | 69 | 20 | 6.0 | 19.0 | 0.00 | 0.00 | 0.00 | 82 | 1011.7 |
| 20260508203703 | 69 | 30 | 6.0 | 19.0 | 0.00 | 0.00 | 0.00 | 81 | 1011.5 |
| 20260508202703 | 69 | 30 | 7.0 | 19.0 | 0.00 | 0.00 | 0.00 | 83 | 1011.5 |
| 20260508201703 | 69 | 20 | 5.0 | 19.0 | 0.00 | 0.00 | 0.00 | 83 | 1011.6 |
| 20260508200705 | 69 | 20 | 6.0 | 17.0 | 0.00 | 0.00 | 0.00 | 84 | 1011.3 |
| 20260508195703 | 69 | 40 | 7.0 | 17.0 | 0.00 | 0.00 | 0.00 | 84 | 1011.1 |
| 20260508194703 | 69 | 30 | 8.0 | 17.0 | 0.00 | 0.00 | 0.00 | 84 | 1011.2 |
| 20260508193703 | 69 | 30 | 5.0 | 17.0 | 0.00 | 0.00 | 0.00 | 85 | 1011.4 |
| 20260508192703 | 69 | 20 | 6.0 | 17.0 | 0.00 | 0.00 | 0.00 | 85 | 1011.2 |
| 20260508191704 | 69 | 30 | 6.0 | 17.0 | 0.00 | 0.00 | 0.00 | 85 | 1011.1 |
| 20260508190703 | 69 | 30 | 6.0 | 15.0 | 0.00 | 0.00 | 0.00 | 84 | 1010.9 |
| 20260508185703 | 69 | 40 | 7.0 | 15.0 | 0.00 | 0.00 | 0.00 | 84 | 1011.0 |
| 20260508184703 | 69 | 40 | 9.0 | 15.0 | 0.00 | 0.00 | 0.00 | 85 | 1011.1 |
| 20260508183703 | 69 | 30 | 7.0 | 15.0 | 0.00 | 0.00 | 0.00 | 85 | 1011.2 |
| 20260508182703 | 69 | 30 | 7.0 | 15.0 | 0.00 | 0.00 | 0.00 | 85 | 1011.2 |
| 20260508181703 | 69 | 30 | 7.0 | 15.0 | 0.00 | 0.00 | 0.00 | 84 | 1011.5 |
| 20260508180704 | 69 | 20 | 7.0 | 20.0 | 0.00 | 0.00 | 0.00 | 85 | 1011.5 |
| 20260508175703 | 69 | 30 | 5.0 | 20.0 | 0.00 | 0.00 | 0.00 | 85 | 1011.4 |
| 20260508174704 | 69 | 40 | 6.0 | 20.0 | 0.00 | 0.00 | 0.00 | 85 | 1011.4 |
| 20260508173703 | 69 | 30 | 5.0 | 20.0 | 0.00 | 0.00 | 0.00 | 85 | 1011.5 |
| 20260508172703 | 69 | 30 | 4.0 | 20.0 | 0.00 | 0.00 | 0.00 | 85 | 1011.7 |
| 20260508171703 | 69 | 30 | 6.0 | 20.0 | 0.00 | 0.00 | 0.00 | 85 | 1011.8 |
| 20260508170704 | 69 | 30 | 6.0 | 21.0 | 0.00 | 0.00 | 0.00 | 84 | 1011.8 |
| 20260508165703 | 69 | 40 | 6.0 | 21.0 | 0.00 | 0.00 | 0.00 | 84 | 1011.8 |
| 20260508164704 | 69 | 40 | 7.0 | 21.0 | 0.00 | 0.00 | 0.00 | 85 | 1012.0 |
| 20260508163704 | 69 | 30 | 8.0 | 21.0 | 0.00 | 0.00 | 0.00 | 85 | 1012.1 |
| 20260508162703 | 69 | 30 | 6.0 | 21.0 | 0.00 | 0.00 | 0.00 | 85 | 1012.2 |
| 20260508161704 | 69 | 40 | 7.0 | 21.0 | 0.00 | 0.00 | 0.00 | 85 | 1012.2 |
| 20260508160704 | 69 | 40 | 8.0 | 18.0 | 0.00 | 0.00 | 0.00 | 85 | 1012.2 |
| 20260508155703 | 69 | 40 | 8.0 | 18.0 | 0.00 | 0.00 | 0.00 | 85 | 1012.4 |
| 20260508154704 | 69 | 30 | 8.0 | 18.0 | 0.00 | 0.00 | 0.00 | 84 | 1012.3 |
| 20260508153703 | 69 | 40 | 9.0 | 18.0 | 0.00 | 0.00 | 0.00 | 84 | 1012.3 |
| 20260508152703 | 69 | 30 | 8.0 | 18.0 | 0.00 | 0.00 | 0.00 | 84 | 1012.4 |
| 20260508151704 | 69 | 40 | 8.0 | 18.0 | 0.00 | 0.00 | 0.00 | 85 | 1012.3 |
| 20260508150704 | 69 | 20 | 6.0 | 19.0 | 0.00 | 0.00 | 0.00 | 84 | 1012.3 |
| 20260508145704 | 69 | 20 | 6.0 | 19.0 | 0.00 | 0.00 | 0.00 | 84 | 1012.3 |
| 20260508144703 | 69 | 30 | 7.0 | 19.0 | 0.00 | 0.00 | 0.00 | 84 | 1012.4 |
| 20260508143704 | 69 | 30 | 5.0 | 19.0 | 0.00 | 0.00 | 0.00 | 84 | 1012.2 |
| 20260508142704 | 70 | 30 | 8.0 | 19.0 | 0.00 | 0.00 | 0.00 | 84 | 1012.3 |
| 20260508141704 | 70 | 20 | 7.0 | 19.0 | 0.00 | 0.00 | 0.00 | 84 | 1012.2 |
| 20260508140703 | 70 | 30 | 5.0 | 20.0 | 0.00 | 0.00 | 0.00 | 83 | 1012.2 |
| 20260508135704 | 70 | 20 | 6.0 | 20.0 | 0.00 | 0.00 | 0.00 | 83 | 1012.3 |
| 20260508134704 | 70 | 20 | 6.0 | 20.0 | 0.00 | 0.00 | 0.00 | 83 | 1012.1 |
| 20260508133703 | 70 | 30 | 7.0 | 20.0 | 0.00 | 0.00 | 0.00 | 83 | 1012.0 |
| 20260508132704 | 70 | 40 | 5.0 | 20.0 | 0.00 | 0.00 | 0.00 | 83 | 1012.0 |
| 20260508131703 | 70 | 40 | 8.0 | 20.0 | 0.00 | 0.00 | 0.00 | 82 | 1011.9 |
| 20260508130703 | 70 | 40 | 6.0 | 24.0 | 0.00 | 0.00 | 0.00 | 82 | 1011.8 |
| 20260508125703 | 70 | 40 | 6.0 | 24.0 | 0.00 | 0.00 | 0.00 | 83 | 1011.7 |
| 20260508124704 | 70 | 20 | 7.0 | 24.0 | 0.00 | 0.00 | 0.00 | 82 | 1011.7 |
| 20260508123703 | 71 | 30 | 6.0 | 24.0 | 0.00 | 0.00 | 0.00 | 82 | 1011.7 |
| 20260508122704 | 71 | 40 | 7.0 | 24.0 | 0.00 | 0.00 | 0.00 | 82 | 1011.5 |
| 20260508121704 | 71 | 40 | 6.0 | 24.0 | 0.00 | 0.00 | 0.00 | 83 | 1011.4 |
| 20260508120703 | 71 | 30 | 8.0 | 20.0 | 0.00 | 0.00 | 0.00 | 83 | 1011.4 |
| 20260508115703 | 71 | 40 | 8.0 | 20.0 | 0.00 | 0.00 | 0.00 | 83 | 1011.4 |
| 20260508114704 | 71 | 30 | 9.0 | 20.0 | 0.00 | 0.00 | 0.00 | 83 | 1011.4 |
| 20260508113704 | 71 | 40 | 9.0 | 20.0 | 0.00 | 0.00 | 0.00 | 83 | 1011.4 |
| 20260508112704 | 71 | 30 | 9.0 | 20.0 | 0.00 | 0.00 | 0.00 | 83 | 1011.4 |
| 20260508111704 | 71 | 40 | 8.0 | 20.0 | 0.00 | 0.00 | 0.00 | 83 | 1011.4 |
| 20260508110704 | 71 | 40 | 9.0 | 24.0 | 0.00 | 0.00 | 0.00 | 84 | 1011.1 |
| 20260508105704 | 71 | 20 | 8.0 | 24.0 | 0.00 | 0.00 | 0.00 | 84 | 1011.1 |
| 20260508104704 | 72 | 40 | 7.0 | 24.0 | 0.00 | 0.00 | 0.00 | 83 | 1010.9 |
| 20260508103703 | 72 | 30 | 8.0 | 24.0 | 0.00 | 0.00 | 0.00 | 84 | 1010.9 |
| 20260508102704 | 72 | 20 | 8.0 | 24.0 | 0.00 | 0.00 | 0.00 | 84 | 1010.7 |
| 20260508101703 | 72 | 30 | 9.0 | 24.0 | 0.00 | 0.00 | 0.00 | 83 | 1010.6 |
| 20260508100703 | 72 | 20 | 9.0 | 23.0 | 0.00 | 0.00 | 0.00 | 83 | 1010.6 |
| 20260508095704 | 72 | 30 | 9.0 | 23.0 | 0.00 | 0.00 | 0.00 | 83 | 1010.7 |
| 20260508094704 | 72 | 30 | 9.0 | 23.0 | 0.00 | 0.00 | 0.00 | 83 | 1010.6 |
| 20260508093703 | 73 | 30 | 8.0 | 23.0 | 0.00 | 0.00 | 0.00 | 83 | 1010.4 |
| 20260508092703 | 73 | 30 | 9.0 | 23.0 | 0.00 | 0.00 | 0.00 | 82 | 1010.3 |
| 20260508091703 | 73 | 30 | 7.0 | 23.0 | 0.00 | 0.00 | 0.00 | 82 | 1010.3 |
| 20260508090703 | 73 | 30 | 8.0 | 21.0 | 0.00 | 0.00 | 0.00 | 81 | 1010.3 |
| 20260508085704 | 74 | 40 | 8.0 | 21.0 | 0.00 | 0.00 | 0.00 | 81 | 1010.4 |
| 20260508084704 | 74 | 30 | 10.0 | 21.0 | 0.00 | 0.00 | 0.00 | 80 | 1010.4 |
| 20260508083703 | 74 | 10 | 8.0 | 21.0 | 0.00 | 0.00 | 0.00 | 80 | 1010.2 |
| 20260508082704 | 74 | 30 | 7.0 | 21.0 | 0.00 | 0.00 | 0.00 | 81 | 1010.0 |
| 20260508081703 | 75 | 30 | 6.0 | 21.0 | 0.00 | 0.00 | 0.00 | 80 | 1009.8 |
| 20260508080704 | 75 | 30 | 7.0 | 23.0 | 0.00 | 0.00 | 0.00 | 80 | 1009.8 |
| 20260508075704 | 75 | 40 | 8.0 | 23.0 | 0.00 | 0.00 | 0.00 | 79 | 1009.8 |
| 20260508074704 | 75 | 30 | 8.0 | 23.0 | 0.00 | 0.00 | 0.00 | 80 | 1009.8 |
| 20260508073703 | 75 | 40 | 9.0 | 23.0 | 0.00 | 0.00 | 0.00 | 80 | 1009.8 |
| 20260508072703 | 75 | 30 | 8.0 | 23.0 | 0.00 | 0.00 | 0.00 | 79 | 1009.8 |
| 20260508071703 | 76 | 30 | 8.0 | 23.0 | 0.00 | 0.00 | 0.00 | 77 | 1009.8 |
| 20260508070703 | 77 | 30 | 11.0 | 19.0 | 0.00 | 0.00 | 0.00 | 75 | 1009.7 |
| 20260508065704 | 77 | 20 | 8.0 | 19.0 | 0.00 | 0.00 | 0.00 | 77 | 1009.7 |
| 20260508064703 | 78 | 10 | 9.0 | 19.0 | 0.00 | 0.00 | 0.00 | 76 | 1009.6 |
| 20260508063703 | 78 | 20 | 9.0 | 19.0 | 0.00 | 0.00 | 0.00 | 74 | 1009.7 |
| 20260508062703 | 78 | 20 | 9.0 | 19.0 | 0.00 | 0.00 | 0.00 | 74 | 1009.8 |
| 20260508061704 | 78 | 30 | 8.0 | 19.0 | 0.00 | 0.00 | 0.00 | 75 | 1009.8 |
| 20260508060704 | 78 | 30 | 8.0 | 24.0 | 0.00 | 0.00 | 0.00 | 74 | 1009.8 |
| 20260508055704 | 79 | 30 | 9.0 | 24.0 | 0.00 | 0.00 | 0.00 | 75 | 1009.9 |
| 20260508054705 | 78 | 30 | 9.0 | 24.0 | 0.00 | 0.00 | 0.00 | 76 | 1009.8 |
| 20260508053703 | 78 | 30 | 7.0 | 24.0 | 0.00 | 0.00 | 0.00 | 76 | 1010.1 |
| 20260508052703 | 78 | 20 | 10.0 | 24.0 | 0.00 | 0.00 | 0.00 | 74 | 1010.4 |
| 20260508051704 | 80 | 40 | 8.0 | 24.0 | 0.00 | 0.00 | 0.00 | 74 | 1010.3 |
| 20260508050704 | 78 | 30 | 9.0 | 23.0 | 0.00 | 0.00 | 0.00 | 75 | 1010.4 |
| 20260508045703 | 78 | 20 | 8.0 | 23.0 | 0.00 | 0.00 | 0.00 | 78 | 1010.4 |
| 20260508044703 | 78 | 40 | 9.0 | 23.0 | 0.00 | 0.00 | 0.00 | 77 | 1010.3 |
| 20260508043704 | 78 | 30 | 9.0 | 23.0 | 0.00 | 0.00 | 0.00 | 76 | 1010.4 |